Simultaneous Nadir Overpasses (SNOs) Predictions

Prediction of SNOs between GOES-15 and TERRA Satellite Orbit:

Table of predicted SNOs for the next 14.0 days since TLE Epoch: 10/12/2024
Index Date Time (GOES-15) GOES-15 Lat,Lon TERRA Lat,Lon Distance(km) Time Diff (sec)
1 10/12/2024 05:44:21 -0.30, 61.22 0.25, 58.55 303.77 80
2 10/14/2024 05:29:02 -0.30, 61.23 -0.62, 62.89 188.03 80
3 10/14/2024 17:48:56 0.30, 61.36 -0.37, 58.04 376.06 80
4 10/16/2024 17:28:16 0.30, 61.37 0.50, 62.39 115.91 80
5 10/17/2024 05:48:01 -0.30, 61.25 0.49, 57.58 417.62 80
6 10/19/2024 05:32:39 -0.30, 61.27 -0.42, 61.93 74.84 80
7 10/19/2024 17:52:32 0.30, 61.39 -0.61, 57.10 488.07 80
8 10/21/2024 17:31:48 0.29, 61.42 0.30, 61.45 4.08 80
9 10/23/2024 17:13:42 0.28, 61.45 1.18, 65.82 496.66 80
10 10/24/2024 05:33:27 -0.28, 61.34 -0.19, 61.01 37.34 80
